Russellville, AR

2:01 AM CST on January 23, 2017 (GMT -0600)
Amateur Radio Station WB5JJJ | | Change Station
Active Advisory: Lake Wind Advisory

Elev 377 ft 35.28 °N, 93.15 °W | Updated 11 seconds ago

Partly Cloudy
Partly Cloudy
45.0 °F
Feels Like 45 °F
N
3.0
Wind Variable Wind from West
Gusts 5.0 mph

Today
High -- | Low -- °F
--% Chance of Precip.
Yesterday
High -- | Low -- °F
Precip. -- in
Pressure 29.80 in
Visibility 10.0 miles
Clouds Few 2400 ft
Overcast 10000 ft
Windchill 45 °F
Dew Point 39 °F
Humidity 80%
Rainfall 0.00 in
Snow Depth Not available.
7:17 AM 5:31 PM
Waning Crescent, 20% visible
METAR KRUE 230753Z AUTO 34011KT 10SM FEW024 OVC100 08/02 A2981 RMK AO2 SLP090 T00780022
Pressure 29.80 in
Visibility 10.0 miles
Clouds Few 2400 ft
Overcast 10000 ft
Windchill 45 °F
Dew Point 39 °F
Humidity 80%
Rainfall 0.00 in
Snow Depth Not available.
7:17 AM 5:31 PM
Waning Crescent, 20% visible
METAR KRUE 230753Z AUTO 34011KT 10SM FEW024 OVC100 08/02 A2981 RMK AO2 SLP090 T00780022

Get Your Daily Forecast Email!

Thanks for signing up!

Be on the lookout for a verification email in your inbox.

You'll start receiving the daily forecast at 8 AM.

×

10-Day Weather Forecast

Almanac

Astronomy

Jan. 23, 2017 Rise Set
Actual Time
Civil Twilight
Nautical Twilight
Astronomical Twilight
Moon
Length of Visible Light
Length of Day
Tomorrow will be .
, % of the Moon is Illuminated

Today's Extremes

State Highs State Lows

Community

WunderPhotos

Upload Photos

1,962,540 photos uploaded!

WunderBlog® & News

Nearby

Air Quality

  Air Quality AQ Index Pollutant
Not available.

Snow Depth

Station Depth Elevation

Earthquake Activity

City Distance Mag. Time & Date
Minimum magnitude displayed is 2.5.

Coastal Water Temperatures

Place Temperature

Stations

Nearby Weather Stations

Station Location Temp. Windchill Dew Point Humidity Wind Precip. Elev Updated Type
                   

Watches & Warnings

Lake Wind Advisory
Issued: 2:10 PM CST Jan. 22, 2017 – National Weather Service

... Lake Wind Advisory remains in effect until 3 am CST Monday...

* event... gusty winds are expected.

* Areas affected... a large part of Arkansas.

* Timing... the strongest winds will be during the evening hours.

* Winds... winds of 15 to 25 mph are likely... with gusts to 35
mph.

* Impacts... winds will cause rough conditions on area bodies of
water.

Precautionary/preparedness actions...

A lake Wind Advisory indicates that winds will cause rough chop
on area lakes. Small boats will be especially prone to capsizing.



56